Greybull, WY

12:18 PM MST on February 06, 2016 (GMT -0700)
South Big Horn County

Weather History for KGEY - October, 2012

Change the Weather History Date:

Sunday, October 21, 2012

  Actual Average Record
Temperature  
Mean Temperature 44 °F 44 °F  
Max Temperature 52 °F 58 °F 83 °F (2003)
Min Temperature 36 °F 30 °F 23 °F (1998)
Degree Days  
Heating Degree Days 22 21  
Month to date heating degree days 358  
Since 1 July heating degree days 589  
Cooling Degree Days 0 0  
Month to date cooling degree days 0  
Year to date cooling degree days 669  
Moisture  
Dew Point 33 °F    
Average Humidity 65    
Maximum Humidity 79    
Minimum Humidity 50    
Precipitation  
Precipitation 0.00 in 0.02 in 0.01 in (2008)
Month to date precipitation 0.49  
Year to date precipitation 6.82  
Sea Level Pressure  
Sea Level Pressure 29.82 in    
Wind  
Wind Speed 10 mph (NW)    
Max Wind Speed 23 mph    
Max Gust Speed 29 mph    
Visibility 10 miles    
Events      
T = Trace of Precipitation, MM = Missing Value Source: NWS Daily Summary

Daily Weather History Graph

Daily Weather History Graph

Search for Another Location

Airport or City:

Trip Planner

Search our weather history database for the weather conditions in past years. The results will help you decide how hot, cold, wet, or windy it might be!

Date:

Astronomy

Oct. 21, 2012 Rise Set
Actual Time 7:35 AM MDT 6:17 PM MDT
Civil Twilight 7:06 AM MDT 6:46 PM MDT
Nautical Twilight 6:32 AM MDT 7:20 PM MDT
Astronomical Twilight 5:58 AM MDT 7:54 PM MDT
Moon 2:03 PM MDT (10/21) No Moon Set
Length of Visible Light 11h 40m
Length of Day
10h 41m
Waxing Crescent, 46% of the Moon is Illuminated
Oct 21
Waxing Crescent
Oct 21
First Quarter
Oct 29
Full
Nov 6
Last Quarter
Nov 13
New

Hourly Weather History & Observations

Time (MDT) Temp. Windchill Dew Point Humidity Pressure Visibility Wind Dir Wind Speed Gust Speed Precip Events Conditions
12:53 AM 48.0 °F - 34.0 °F 58% 29.66 in 10.0 mi NW 18.4 mph - N/A   Clear
1:53 AM 42.1 °F 32.6 °F 32.0 °F 67% 29.70 in 10.0 mi WNW 23.0 mph - N/A   Clear
2:53 AM 39.9 °F 30.5 °F 32.0 °F 73% 29.73 in 10.0 mi WNW 19.6 mph 28.8 mph N/A   Clear
3:53 AM 39.0 °F 30.3 °F 32.0 °F 76% 29.76 in 10.0 mi WNW 16.1 mph - N/A   Partly Cloudy
4:53 AM 39.9 °F 32.1 °F 32.0 °F 73% 29.77 in 10.0 mi WNW 13.8 mph - N/A   Overcast
5:53 AM 37.9 °F 35.5 °F 32.0 °F 79% 29.80 in 10.0 mi West 3.5 mph - 0.00 in   Mostly Cloudy
6:46 AM 37.4 °F 32.1 °F 30.2 °F 75% 29.85 in 10.0 mi North 6.9 mph - N/A   Mostly Cloudy
6:53 AM 37.0 °F 33.3 °F 30.9 °F 79% 29.83 in 10.0 mi NNW 4.6 mph - N/A   Mostly Cloudy
7:53 AM 36.0 °F 33.3 °F 30.0 °F 79% 29.86 in 10.0 mi WNW 3.5 mph - N/A   Clear
8:53 AM 39.0 °F 36.8 °F 32.0 °F 76% 29.88 in 10.0 mi NNW 3.5 mph - N/A   Clear
9:53 AM 42.1 °F - 32.0 °F 67% 29.87 in 10.0 mi Calm Calm - N/A   Mostly Cloudy
10:53 AM 42.1 °F - 32.0 °F 67% 29.89 in 10.0 mi Calm Calm - N/A   Overcast
11:53 AM 44.1 °F 42.5 °F 33.1 °F 65% 29.87 in 10.0 mi WNW 3.5 mph - N/A   Scattered Clouds
1:53 PM 48.0 °F - 33.1 °F 56% 29.85 in 10.0 mi Calm Calm - N/A   Clear
2:53 PM 48.9 °F - 33.1 °F 54% 29.84 in 10.0 mi Calm Calm - N/A   Clear
3:53 PM 50.0 °F - 33.1 °F 52% 29.83 in 10.0 mi Calm Calm - N/A   Clear
4:53 PM 51.1 °F - 33.1 °F 50% 29.82 in 10.0 mi Variable 3.5 mph - N/A   Overcast
5:53 PM 50.0 °F - 33.1 °F 52% 29.83 in 10.0 mi Calm Calm - N/A   Overcast
6:53 PM 50.0 °F - 32.0 °F 50% 29.83 in 10.0 mi NNW 4.6 mph - N/A   Overcast
7:53 PM 50.0 °F - 33.1 °F 52% 29.86 in 10.0 mi WNW 8.1 mph - N/A   Overcast
8:53 PM 48.0 °F - 35.1 °F 61% 29.85 in 10.0 mi NW 4.6 mph - N/A   Partly Cloudy
9:53 PM 46.9 °F - 36.0 °F 66% 29.85 in 10.0 mi WNW 9.2 mph - N/A   Overcast
10:53 PM 43.0 °F 39.5 °F 34.0 °F 71% 29.85 in 10.0 mi WNW 5.8 mph - N/A   Clear
11:53 PM 41.0 °F 38.0 °F 33.1 °F 73% 29.84 in 10.0 mi West 4.6 mph - N/A   Clear